Home > Weather > Prizren > Past weeks

Flag for Kosovo Weather for the Past 2 Weeks in Prizren, Kosovo

Now
23 °F

Clear.


Feels Like: 23 °F
Forecast: 29 / 53 °F
Wind: 2 mph from Southeast

Location: Skopje-Petrovec

Current Time: Feb 7, 2016 at 5:36:56 AM

Latest Report: Feb 7, 2016 at 4:00 AM


Visibility: 10 mi

Pressure: 30.39 "Hg

Humidity: 86%

Dew point: 19 °F

Location of PrizrenLocation

Historic Weather in Prizren — Graph

°F

Prizren Temperature Yesterday

Maximum temperature yesterday: 48 °F (at 2:00 PM)
Minimum temperature yesterday: 27 °F (at 11:30 PM)
Average temperature yesterday: 39 °F

High & Low Weather Summary for the Past Weeks

 TemperatureHumidityPressure
High66 °F (Feb 2, 2:30 PM)100% (Jan 27, 3:00 AM)30.63 "Hg (Jan 27, 3:00 AM)
Low9 °F (Jan 24, 5:00 AM)29% (Feb 6, 2:00 PM)29.86 "Hg (Feb 4, 5:00 AM)
Average36 °F78%30.32 "Hg
* Reported Jan 23 4:00 AM — Feb 7 4:00 AM, Prizren, Weather by CustomWeather, © 2016

Note: Actual official high and low records may vary slightly from our data, if they occured in-between our weather recording intervals... More about our weather records

Advertising

Prizren Weather History for the Previous 24 Hours

 ConditionsComfort  
Time TempWeatherWind HumidityBarometerVisibility
4:00 AM
Sun, Feb 7
23 °FClear.2 mph86%30.39 "Hg10 mi
3:30 AM23 °FClear.2 mph86%30.39 "Hg10 mi
3:00 AM23 °FClear.2 mph86%30.39 "Hg10 mi
2:30 AM25 °FClear.No wind86%30.39 "Hg10 mi
2:00 AM23 °FClear.No wind86%30.39 "Hg10 mi
1:30 AM25 °FClear.No wind86%30.39 "Hg10 mi
1:00 AM25 °FClear.No wind86%30.39 "Hg10 mi
12:00 AM27 °FClear.No wind80%30.42 "Hg10 mi
11:30 PM
Sat, Feb 6
27 °FClear.2 mph80%30.42 "Hg10 mi
10:00 PM28 °FClear.No wind74%30.42 "Hg10 mi
9:30 PM28 °FClear.No wind74%30.39 "Hg10 mi
9:00 PM30 °FClear.No wind69%30.39 "Hg10 mi
8:30 PM32 °FClear.3 mph64%30.39 "Hg10 mi
8:00 PM32 °FClear.3 mph64%30.39 "Hg10 mi
7:30 PM32 °FClear.1 mph60%30.39 "Hg10 mi
7:00 PM32 °FClear.1 mph64%30.39 "Hg10 mi
6:30 PM36 °FClear.1 mph56%30.39 "Hg10 mi
6:00 PM37 °FClear.3 mph52%30.39 "Hg10 mi
5:30 PM41 °FClear.3 mph39%30.39 "Hg10 mi
5:00 PM43 °FClear.No wind36%30.39 "Hg10 mi
4:30 PM48 °FSunny.No wind32%30.39 "Hg10 mi
4:00 PM48 °FSunny.1 mph29%30.39 "Hg10 mi
3:30 PM48 °FSunny.2 mph29%30.39 "Hg10 mi
3:00 PM48 °FSunny.1 mph32%30.39 "Hg10 mi
2:30 PM48 °FSunny.2 mph29%30.39 "Hg10 mi
2:00 PM48 °FSunny.2 mph29%30.39 "Hg10 mi
1:30 PM46 °FSunny.3 mph34%30.39 "Hg10 mi
1:00 PM46 °FSunny.1 mph34%30.42 "Hg10 mi
12:30 PM46 °FSunny.2 mph34%30.45 "Hg10 mi
12:00 PM45 °FSunny.3 mph37%30.42 "Hg10 mi
11:30 AM45 °FSunny.3 mph39%30.45 "Hg10 mi
11:00 AM45 °FSunny.3 mph39%30.45 "Hg10 mi
10:30 AM43 °FSunny.2 mph42%30.45 "Hg10 mi
10:00 AM43 °FSunny.3 mph46%30.48 "Hg10 mi
9:30 AM41 °FPassing clouds.1 mph53%30.48 "HgN/A
9:00 AM39 °FPassing clouds.1 mph56%30.48 "HgN/A
8:30 AM39 °FPassing clouds.1 mph61%30.48 "HgN/A
8:00 AM36 °FPassing clouds.No wind70%30.45 "HgN/A
7:30 AM30 °FScattered clouds.2 mph86%30.45 "HgN/A
7:00 AM30 °FPartly sunny.No wind80%30.45 "HgN/A
6:30 AM32 °FPassing clouds.No wind75%30.42 "HgN/A
6:00 AM32 °FPassing clouds.No wind80%30.42 "HgN/A
5:00 AM36 °FPassing clouds.No wind70%30.42 "HgN/A
Weather by CustomWeather, © 2016

See weather overviewHow to use our weather pages